GEFSCGP_con_prob3kmehi_306.txt.gz
EHI
0 0 0 0 0 0 0 0 0 0 0 0 1 1 1 1 1 2 5 9 11 9 9 11 12 13 15 21 27 28 25 25 23 18 16 14 12 11 11 12 16 16 15 14
0 0 0 0 0 0 0 0 0 0 0 0 0 0 1 2 2 3 5 9 11 12 13 14 15 15 17 23 29 31 29 27 22 16 13 14 13 11 11 12 15 17 16 14
0 0 0 0 0 0 0 0 0 0 0 0 0 1 2 3 4 5 6 8 11 14 16 18 19 18 17 22 28 31 32 29 21 15 13 14 15 13 11 13 18 19 17 15
0 0 0 0 0 0 0 0 0 0 0 0 0 1 4 4 5 7 8 10 13 16 17 20 21 20 18 19 24 30 34 31 24 19 17 17 17 14 13 15 20 21 20 17
0 0 0 0 0 0 0 0 0 0 0 0 0 1 3 4 6 10 12 14 17 20 21 21 22 23 20 18 22 31 38 36 31 24 21 21 20 17 15 17 20 21 22 21
0 0 0 0 0 0 0 0 0 0 0 0 0 1 2 4 7 11 14 16 21 23 22 22 24 25 22 19 22 32 41 42 37 30 27 25 23 21 20 19 20 21 23 24
0 0 0 0 0 0 0 0 0 0 0 0 0 1 3 5 8 11 13 17 21 24 22 24 27 26 23 22 27 36 43 44 41 37 33 28 24 24 24 22 22 22 23 25
0 0 0 0 0 0 0 0 0 0 0 0 0 2 4 6 9 11 13 16 20 24 23 23 25 26 24 26 32 39 44 45 42 40 36 29 25 25 25 25 24 22 20 21
0 0 0 0 0 0 0 0 0 0 0 0 1 3 5 7 10 12 13 14 18 22 22 20 21 23 23 27 33 40 45 45 42 40 35 28 26 26 26 27 27 21 18 17
0 0 0 0 0 0 0 0 0 0 0 0 1 4 6 9 12 13 12 13 16 19 18 18 19 20 21 25 32 40 45 45 42 38 34 29 28 28 28 29 28 24 19 18
0 0 0 0 0 0 0 0 0 0 0 0 1 4 7 10 14 15 14 13 16 17 16 17 21 22 22 25 31 38 43 44 42 39 37 35 33 31 29 29 29 27 25 24
0 0 0 0 0 0 0 0 0 0 0 0 1 4 8 11 14 16 15 14 16 17 18 21 25 26 27 30 34 39 42 42 41 39 40 40 38 35 33 32 31 31 31 30
0 0 0 0 0 0 0 0 0 0 0 0 1 4 9 12 12 14 15 15 15 19 24 30 33 35 37 41 44 45 44 41 38 38 39 41 41 39 38 36 35 34 33 32
0 0 0 0 0 0 0 0 0 0 0 0 1 5 10 12 13 13 15 16 17 23 31 37 42 45 48 50 51 50 47 42 39 39 40 43 43 42 43 42 39 36 34 32
0 0 0 0 0 0 0 0 0 0 0 0 1 6 12 15 15 15 15 16 20 26 32 38 45 49 51 52 52 52 50 47 44 42 42 46 46 44 44 44 42 39 35 34
0 0 0 0 0 0 0 0 0 0 0 1 3 7 13 15 15 15 14 16 22 27 29 33 41 48 50 52 53 54 54 52 47 42 40 43 44 43 43 43 42 41 39 38
0 0 0 0 0 0 0 0 1 1 1 3 5 10 13 12 12 13 14 17 21 24 25 29 37 44 48 50 53 54 53 52 50 43 39 39 41 41 41 42 44 45 44 43
1 1 1 0 0 0 1 1 2 3 4 6 8 10 11 10 11 15 16 17 20 22 24 27 34 40 44 46 48 50 49 49 49 46 42 40 42 42 42 44 47 50 50 49
1 2 1 0 0 0 1 2 2 4 6 9 11 11 10 10 13 18 20 19 19 22 23 25 28 35 42 44 46 47 46 45 45 44 43 43 45 44 43 46 49 52 54 53
1 1 1 0 0 0 1 2 2 4 7 10 13 14 13 12 15 20 22 21 19 21 23 23 25 31 40 46 47 46 44 43 44 43 42 45 47 46 45 47 51 54 54 53
0 0 0 0 0 1 2 3 5 7 10 11 14 17 16 15 18 20 21 20 20 21 22 24 26 31 40 46 46 45 44 43 44 45 45 47 47 46 45 48 53 54 52 51
0 0 0 0 0 2 5 7 9 13 13 13 15 17 17 16 18 20 20 20 20 22 22 25 28 33 39 42 42 42 42 43 45 46 46 46 44 41 41 45 51 52 50 49
0 0 1 2 3 5 8 10 11 13 15 15 16 16 17 17 17 20 20 18 19 22 23 24 28 33 36 37 38 39 40 41 42 43 42 42 41 38 38 41 45 47 46 45
0 0 2 4 4 5 8 10 10 12 15 16 16 17 18 18 19 20 19 18 20 23 25 26 28 31 33 35 35 36 37 38 39 39 38 38 38 38 39 40 40 40 40 40
1 1 2 5 6 5 7 10 11 13 16 16 16 17 18 18 19 20 21 21 21 23 25 28 30 31 32 33 34 35 35 36 37 37 35 34 35 38 39 37 32 29 29 28
2 2 2 4 7 6 7 10 13 16 16 15 16 17 17 17 18 19 22 24 22 22 25 28 30 30 31 32 34 34 34 36 38 36 33 32 33 36 37 34 25 19 18 16

GEFSCGP_con_prob3kmehi_312.txt.gz
EHI
0 0 0 0 0 0 0 0 0 0 0 0 0 1 3 7 9 8 8 6 4 3 2 3 6 6 3 1 0 1 3 4 4 2 1 0 1 2 2 2 2 3 4 4
0 0 0 0 0 0 0 0 0 0 0 0 0 0 2 5 7 9 9 8 5 3 1 2 5 7 5 3 2 3 3 4 3 2 1 0 1 1 2 3 3 4 4 6
0 0 0 0 0 0 0 0 0 0 0 0 1 0 0 2 5 9 10 9 7 4 2 2 5 8 10 8 6 5 4 3 3 3 2 2 3 3 3 3 4 4 6 7
0 0 0 0 0 0 0 0 0 0 0 0 0 0 0 1 4 7 9 10 8 6 4 5 7 9 12 13 11 8 6 5 4 4 4 5 5 5 5 4 4 5 6 7
0 0 0 0 0 0 0 0 0 0 0 0 0 0 0 2 3 4 6 8 9 9 8 7 9 10 12 14 13 11 9 8 7 7 8 7 6 6 6 6 6 6 5 5
0 0 0 0 0 0 0 0 0 0 0 0 0 0 0 2 3 3 3 4 8 12 12 10 10 11 12 14 15 14 13 12 11 12 12 10 8 7 7 7 8 6 3 2
0 0 0 0 0 0 0 0 0 0 0 0 0 0 1 2 3 2 1 3 7 12 14 13 12 13 14 16 18 18 17 15 14 14 13 12 9 7 6 7 7 5 2 1
0 0 0 0 0 0 0 0 0 0 0 0 1 1 1 1 1 1 1 4 8 13 14 14 15 16 18 20 22 21 19 17 15 14 12 11 8 6 5 6 5 4 3 2
0 0 0 0 0 0 0 0 0 0 0 0 1 2 2 1 0 0 2 5 9 13 13 14 16 19 21 24 25 24 21 19 17 15 12 10 7 6 5 4 4 5 4 2
0 0 0 0 0 0 0 0 0 0 0 0 0 1 1 2 1 1 2 5 9 11 12 13 16 20 25 29 28 25 23 22 20 17 15 11 9 8 6 5 5 7 6 3
0 0 0 0 0 0 0 0 0 0 0 0 0 0 1 2 3 3 4 5 8 10 10 11 16 22 30 34 32 28 25 23 20 17 16 15 15 13 11 9 10 11 8 5
0 0 0 0 0 0 0 0 0 0 0 0 0 0 1 3 5 5 5 6 7 10 11 12 17 25 33 38 36 32 29 25 22 19 17 18 19 19 16 15 15 14 10 7
0 0 0 0 0 0 0 0 0 0 0 0 0 0 1 4 6 7 8 10 12 14 15 18 22 27 33 36 35 32 31 29 26 23 21 19 18 19 19 17 16 14 11 9
0 0 0 0 0 0 0 0 0 0 0 0 0 1 2 4 6 9 13 16 18 20 21 24 28 29 31 33 31 27 28 28 26 25 23 19 16 16 16 15 14 12 10 9
0 0 0 0 0 0 0 0 0 0 0 0 0 1 2 4 6 11 17 21 22 23 24 27 30 29 29 31 29 26 26 24 23 25 25 21 17 15 13 12 12 11 10 9
0 0 0 0 0 0 0 0 0 0 1 1 0 1 2 4 7 13 19 22 23 22 23 25 26 26 27 30 30 29 28 25 23 25 26 24 22 19 15 14 13 12 11 10
0 0 0 0 0 0 0 0 0 2 4 4 3 4 5 6 7 13 19 22 21 19 19 21 22 22 23 25 27 28 28 27 25 25 25 25 26 24 22 20 18 15 13 12
0 0 0 0 0 0 0 0 2 5 8 9 9 9 9 8 9 11 16 19 18 16 16 18 20 20 20 21 23 26 27 25 24 23 22 24 27 28 27 26 23 18 15 14
0 0 0 0 0 0 0 1 3 7 11 12 12 11 10 10 10 11 12 14 15 14 16 18 19 19 20 20 21 25 26 24 23 21 20 21 25 27 28 27 24 21 18 16
0 0 0 0 0 0 1 2 4 8 9 9 9 8 7 8 9 9 11 13 15 16 18 19 19 19 18 17 20 24 26 25 23 21 20 21 22 25 26 24 21 21 19 17
0 0 0 0 0 1 2 3 4 5 5 6 6 6 6 7 8 10 12 14 15 15 16 18 19 18 15 13 17 22 25 25 24 24 23 23 23 24 24 23 21 21 19 18
0 0 0 0 0 1 2 3 4 4 5 5 5 6 8 9 10 12 12 11 11 11 11 13 16 16 14 13 15 20 23 24 26 28 27 26 25 24 22 22 23 23 21 18
1 0 1 1 1 1 3 3 4 5 7 8 9 10 10 10 10 9 7 6 7 8 8 10 14 16 15 15 16 18 20 23 28 30 29 26 25 23 22 21 23 24 23 20
2 2 2 2 3 3 4 5 6 8 10 12 13 12 10 8 7 4 3 2 5 8 9 12 16 17 16 15 15 16 18 22 27 30 27 25 23 21 20 20 21 23 23 21
2 2 2 2 3 4 5 7 9 11 13 14 13 11 8 7 5 4 3 3 5 9 12 15 18 16 14 13 12 14 16 20 23 25 25 23 22 21 19 19 19 18 17 17
1 1 1 1 2 4 5 8 10 13 15 14 11 9 7 6 6 5 5 5 7 10 13 17 17 15 12 10 10 11 15 17 19 20 21 22 22 22 20 17 16 15 13 12

GEFSCGP_con_prob3kmehi_318.txt.gz
EHI
0 0 0 0 0 0 0 0 0 0 0 0 0 1 2 3 3 1 0 0 0 0 0 0 1 2 1 0 0 0 0 0 0 0 0 0 0 0 1 1 2 3 3 2
0 0 0 0 0 0 0 0 0 0 0 0 0 1 2 3 3 2 1 1 0 0 0 0 1 1 1 0 0 0 0 0 0 0 0 1 1 1 2 3 3 3 3 3
0 0 0 0 0 0 0 0 0 0 0 0 0 0 1 2 2 3 2 1 0 0 0 0 0 0 0 0 0 0 0 0 0 1 1 2 2 3 3 4 4 4 3 3
0 0 0 0 0 0 0 0 0 0 0 0 0 0 0 1 1 2 3 2 0 0 0 0 0 0 0 0 0 0 0 1 1 2 3 3 3 3 3 3 4 3 3 3
0 0 0 0 0 0 0 0 0 0 0 0 0 0 0 0 0 1 2 1 0 0 0 0 0 0 0 0 1 1 1 2 3 3 3 3 3 3 4 3 3 3 2 1
0 0 0 0 0 0 0 0 0 0 0 0 0 0 0 0 0 0 1 1 0 0 0 0 0 1 1 1 3 3 3 3 3 4 4 4 4 4 4 4 3 3 2 1
0 0 0 0 0 0 0 0 0 0 0 0 0 0 0 0 0 0 0 0 0 0 0 0 1 2 3 4 5 6 5 4 4 4 4 5 5 4 5 4 3 3 2 1
0 0 0 0 0 0 0 0 0 0 0 0 0 0 0 0 0 0 0 0 0 0 0 0 1 3 4 6 7 7 6 4 3 4 4 5 5 4 4 4 4 3 3 3
0 0 0 0 0 0 0 0 0 0 0 0 0 0 0 0 0 0 0 1 1 1 0 1 2 3 5 7 8 8 6 4 3 3 4 4 4 3 3 4 3 3 3 3
0 0 0 0 0 0 0 0 0 0 0 0 0 0 0 0 0 0 1 2 3 2 1 2 3 3 5 8 9 8 7 4 3 3 3 3 3 4 3 3 3 3 3 3
0 0 0 0 0 0 0 0 0 0 0 0 0 0 0 0 0 0 1 3 3 4 4 4 4 4 6 10 9 8 6 5 4 4 3 3 4 4 3 3 3 3 3 3
0 0 0 0 0 0 0 0 0 0 0 0 0 0 0 0 0 1 2 3 3 4 5 6 5 5 8 10 9 7 6 5 4 4 3 3 3 3 2 2 3 3 3 3
0 0 0 0 0 0 0 0 0 0 0 0 0 0 0 0 0 1 2 2 2 2 5 6 7 8 10 10 8 8 7 6 4 3 4 4 3 3 2 2 3 3 4 4
0 0 0 0 0 0 0 0 0 0 0 0 0 0 0 0 0 0 1 1 1 2 4 7 9 11 12 11 9 8 8 6 4 4 4 4 4 3 2 2 2 3 4 5
0 0 0 0 0 0 0 0 0 0 0 0 0 0 0 0 0 0 0 1 2 4 7 9 10 11 11 10 8 8 7 6 5 5 5 5 5 4 3 1 1 2 3 3
0 0 0 0 0 0 0 0 0 0 0 0 0 0 0 0 1 1 1 2 4 7 8 10 10 10 8 8 8 9 8 6 6 5 6 7 7 6 4 2 1 1 1 1
0 0 0 0 0 0 0 0 0 0 0 0 0 0 0 0 1 2 3 3 5 7 8 8 9 9 8 9 11 12 11 10 8 7 7 8 8 8 7 4 3 2 1 1
0 0 0 0 0 0 0 0 0 0 0 0 0 0 0 1 2 3 3 3 5 6 7 8 9 9 8 10 13 15 14 12 10 7 7 8 8 9 8 6 4 3 3 3
0 0 0 0 0 0 0 0 0 0 0 0 0 0 1 2 3 3 2 3 5 6 7 8 9 9 9 11 14 16 16 13 10 8 6 7 8 9 8 7 6 5 4 4
0 0 0 0 0 0 0 1 1 1 0 0 0 1 2 3 4 3 3 5 6 6 7 8 10 10 10 12 15 17 16 12 9 7 6 6 7 9 9 8 8 7 5 4
0 0 0 0 0 0 0 1 1 1 1 1 2 3 4 5 4 4 4 6 7 7 6 8 11 12 12 11 13 16 15 11 8 7 7 7 7 8 9 9 9 9 8 6
0 0 0 0 0 0 0 1 1 1 2 3 4 5 5 5 4 5 5 6 7 7 6 7 11 13 12 10 10 12 11 9 7 6 6 6 5 6 9 9 9 10 10 11
0 0 0 1 1 0 0 1 1 2 3 4 5 5 4 3 4 5 5 6 6 6 5 6 9 12 11 9 8 8 8 7 7 7 6 5 5 6 9 10 9 11 13 13
0 0 1 2 2 1 1 1 3 4 5 5 4 4 4 4 4 4 4 4 5 4 4 5 7 10 9 7 6 6 5 6 6 7 6 6 6 7 10 10 11 13 14 13
0 0 2 3 3 2 2 3 4 5 5 5 5 5 5 5 4 4 3 4 5 4 3 4 6 7 7 5 4 4 3 3 4 5 6 7 7 8 9 11 11 12 11 11
0 0 1 2 2 3 3 4 4 4 5 6 7 7 6 5 4 4 4 5 5 4 3 4 6 6 6 5 4 3 2 2 3 4 5 7 8 9 10 10 10 8 7 7

GEFSCGP_con_prob3kmehi_324.txt.gz
EHI
0 0 0 0 0 0 0 0 0 0 0 1 2 1 0 1 3 3 3 3 2 1 0 0 0 2 4 4 3 3 4 3 2 2 1 1 2 2 2 2 1 0 0 0
0 0 0 0 0 0 0 0 0 0 0 1 1 1 1 2 3 3 3 3 1 0 1 1 2 3 4 4 3 3 4 5 5 5 5 4 4 2 2 2 1 0 0 0
0 0 0 0 0 0 0 0 0 0 0 0 0 1 2 4 4 4 3 2 1 0 1 3 3 4 4 4 3 3 4 7 9 10 9 7 5 3 3 2 1 0 1 1
0 0 0 0 0 0 0 0 0 0 0 0 0 0 2 5 6 5 4 3 1 0 2 3 4 4 4 4 3 4 5 8 12 14 12 9 6 4 4 3 1 1 2 3
0 0 0 0 0 0 0 0 0 0 0 0 0 0 1 4 7 7 6 4 1 1 2 3 3 3 4 3 3 4 6 10 13 15 14 10 7 5 4 4 3 3 3 4
0 0 0 0 0 0 0 0 0 0 0 0 0 0 1 3 5 7 7 5 2 2 3 3 3 3 3 4 4 5 8 12 14 15 14 11 9 6 4 4 4 4 4 4
0 0 0 0 0 0 0 0 0 0 0 0 0 0 1 3 4 5 6 6 4 3 3 4 4 4 4 5 6 7 10 14 15 13 12 11 10 7 4 4 5 4 4 3
0 0 0 0 0 0 0 0 0 0 0 0 0 0 1 3 4 4 5 5 4 4 4 5 5 5 4 5 7 10 13 15 15 12 10 10 10 7 4 3 4 4 4 4
0 0 0 0 0 0 0 0 0 0 0 0 0 1 2 4 5 5 4 4 3 4 5 6 6 5 4 5 7 12 15 16 14 12 9 8 8 7 5 3 4 4 5 5
0 0 0 0 0 0 0 0 0 0 0 0 0 0 2 4 6 6 5 4 3 3 5 7 7 6 4 4 8 12 15 16 14 11 8 6 7 8 6 5 6 6 7 7
0 0 0 0 0 0 0 0 0 0 0 0 0 0 1 4 6 7 6 4 3 4 6 8 8 7 5 4 7 12 15 15 13 10 9 8 8 8 7 8 8 8 7 8
0 0 0 0 0 0 0 0 0 0 0 0 0 0 1 3 6 7 7 5 5 6 7 8 8 8 7 5 6 11 14 13 10 9 9 11 10 9 9 10 10 8 7 8
0 0 0 0 0 0 0 0 0 0 0 0 0 0 1 3 5 7 7 8 8 9 9 8 8 10 11 11 11 12 13 12 10 9 11 13 13 12 11 12 13 10 9 9
0 0 0 0 0 0 0 0 0 0 0 0 0 1 2 4 5 7 8 10 12 13 12 10 11 14 17 20 20 18 16 15 14 13 13 14 15 15 15 16 16 14 10 8
0 0 0 0 0 0 0 0 0 0 0 0 0 1 3 5 6 7 8 9 12 15 14 12 14 18 23 26 27 25 21 18 17 16 15 15 16 18 19 19 17 13 9 7
0 0 0 0 0 0 0 0 0 0 0 0 0 1 3 5 7 8 9 10 13 16 15 15 18 23 27 29 30 31 28 23 20 18 18 18 17 18 19 19 15 11 9 8
0 0 0 0 0 0 0 0 0 0 0 0 0 1 3 5 8 10 11 12 15 17 19 21 23 26 29 31 33 35 33 29 26 24 22 21 20 19 20 19 16 14 13 13
0 0 0 0 0 0 0 0 0 0 0 0 0 1 3 6 7 8 9 12 15 19 22 24 25 27 30 33 35 36 35 33 32 29 25 23 23 22 23 23 21 19 18 17
0 0 0 0 0 0 0 0 1 0 1 1 1 2 4 5 5 5 7 10 14 20 24 24 24 26 30 32 33 33 32 30 30 28 24 21 22 23 22 22 22 21 19 18
0 0 0 0 0 0 0 0 0 0 1 3 4 4 5 6 7 8 9 11 16 22 25 25 24 25 28 28 28 27 26 24 23 22 19 18 18 19 18 18 18 19 19 19
0 0 0 0 0 0 0 0 0 1 4 7 8 7 6 7 11 14 13 15 19 24 27 26 25 25 26 25 23 23 23 22 20 18 17 16 16 15 15 16 17 18 19 20
0 0 0 0 0 1 1 2 3 5 8 10 9 8 7 8 12 15 16 17 20 24 26 26 26 26 27 26 25 25 24 23 22 21 19 18 17 14 14 16 18 17 17 18
0 0 1 1 2 3 4 6 8 9 9 9 7 7 6 8 11 14 16 17 19 22 24 25 26 27 29 29 29 28 27 25 24 24 20 18 17 15 14 15 16 16 16 17
1 2 3 5 6 6 8 9 11 11 10 8 7 7 8 10 14 17 17 17 17 19 20 22 24 27 28 30 31 30 28 26 25 23 20 17 15 13 12 13 13 15 15 15
3 4 7 9 11 11 11 12 13 12 12 10 10 10 12 14 17 19 19 17 17 17 17 18 21 23 24 25 26 26 25 24 24 21 17 14 12 11 11 12 11 11 12 10
4 5 8 11 12 13 12 13 13 13 13 13 11 12 16 17 18 20 20 19 19 18 17 17 19 20 20 20 20 21 22 22 22 19 14 12 11 11 11 12 11 8 7 5